Regional Weather Roundup
Issued by NWS

Home | Current Version | Previous Version | Text Only | Print | Product List | Glossary Off
Versions: 1 2 3 4 5 6 7 8 9 10 11 12 13 14 15 16 17 18 19 20 21 22 23 24 25 26 27 28

000
ASUS45 KCYS 231710
RWRWY

WYOMING REGIONAL WEATHER ROUNDUP
NATIONAL WEATHER SERVICE CHEYENNE WY
1000 AM MST THU FEB 23 2017

NOTE:  "FAIR" INDICATES FEW OR NO CLOUDS BELOW 12,000 FEET
WITH NO SIGNIFICANT WEATHER AND/OR OBSTRUCTIONS TO VISIBILITY.

WYZ001-231800-
YELLOWSTONE NATIONAL PARK

CITY           SKY/WX    TMP DP  RH WIND       PRES   REMARKS
LK YELLOWSTONE   N/A     18   8  65 MISG      29.63F
W YELLOWSTONE  NOT AVBL

$$
WYZ002>013-054>058-071-098>099-231800-
NORTHERN WYOMING

CITY           SKY/WX    TMP DP  RH WIND       PRES   REMARKS
JACKSON        CLOUDY    21  16  79 NE15      29.61R WCI   8
CODY           CLOUDY    23  18  81 N17G30    29.78R WCI   9
GREYBULL       FAIR      31  20  63 NW16      29.71R WCI  20
WORLAND        CLOUDY    30  24  78 NW14      29.73R WCI  19
SHERIDAN       CLOUDY    27  24  89 NE9       29.87R WCI  18
BUFFALO        LGT SNOW  26  22  84 N16       29.81R VSB 3/4 WCI  14
GILLETTE       CLOUDY    27  24  89 NE15G25   29.80R WCI  15
HULETT         CLOUDY    28  27  93 MISG      29.82S FOG
NEWCASTLE      LGT SNOW  30  27  86 W7        29.76R WCI  23

$$
WYZ014>020-022>026-101>103-231800-
CENTRAL WYOMING

CITY           SKY/WX    TMP DP  RH WIND       PRES   REMARKS
BIG PINEY      CLOUDY    22  17  81 N21G30    29.55R WCI   6
PINEDALE       PTSUNNY   21  14  73 NW14      29.55R WCI   8
DUBOIS         CLOUDY    21  19  93 S13       29.58S FOG     WCI   9
LANDER         FOG       24  23  96 N14       29.66R VSB 1/4 WCI  12
RIVERTON       SNOW      24  22  91 N23       29.66R VSB 1/4 WCI   9
CASPER         SNOW      23  21  92 E22G30    29.67R VSB 1/4 WCI   8
DOUGLAS        SNOW      22  20  92 E12       29.74R VSB 1/4 WCI  10

$$
WYZ021-027>030-104>119-231800-
SOUTHERN WYOMING

CITY           SKY/WX    TMP DP  RH WIND       PRES   REMARKS
EVANSTON       CLOUDY    18  13  80 SW12      29.61R WCI   5
FORT BRIDGER   LGT SNOW  21  20  96 W20       29.62S WCI   6
ROCK SPRINGS   HVY SNOW  22  18  85 NW25G31   29.55R VSB 1/4 WCI   5
DIXON          LGT SNOW  26  21  81 SW17G24   29.54S WCI  13
RAWLINS        SNOW      22  18  85 E24G33    29.48R VSB 1/4 WCI   5
SARATOGA       FAIR      28  19  69 SW14G20   29.47R WCI  17
LARAMIE        FLURRIES  22  15  75 E10       29.49S WCI  11
CHEYENNE       SNOW      24  22  91 NE13G21   29.57R VSB 1/2 WCI  12
TORRINGTON     SNOW      24  21  88 NE17      29.70R VSB 1/4 WCI  11
PINE BLUFFS    RAIN      27  27 100 NE12G18   29.57F WCI  16

$$




USA.gov is the U.S. government's official web portal to all federal, state and local government web resources and services.